Home   Weather   Stralsund   Past weeks

Flag for Germany Past Weather in Stralsund, Mecklenburg-Western Pomerania, Germany — Yesterday and Last 2 Weeks

Now
32 °F

Passing clouds.


Feels Like: 26 °F
Forecast: 35 / 43 °F
Wind: 7 mph from Southwest

Location: Laage

Current Time: Dec 5, 2016 at 11:47:03 am

Latest Report: Dec 5, 2016 at 10:20 am


Visibility: 4 mi

Pressure: 30.30 "Hg

Humidity: 87%

Dew Point: 28 °F

Location of StralsundLocation

Past Weather in Stralsund — Graph

°F

Stralsund Temperature Yesterday

Maximum temperature yesterday: 37 °F (at 1:20 pm)
Minimum temperature yesterday: 32 °F (at 5:20 am)
Average temperature yesterday: 35 °F

High & Low Weather Summary for the Past Weeks

 TemperatureHumidityPressure
High57 °F (Nov 21, 2:20 pm)100% (Nov 23, 1:20 am)30.60 "Hg (Nov 23, 1:20 am)
Low23 °F (Dec 3, 8:20 am)52% (Nov 28, 11:52 am)29.47 "Hg (Nov 20, 4:20 pm)
Average39 °F84%30.11 "Hg
* Reported Nov 20 10:20 am — Dec 5 10:20 am, Stralsund, Weather by CustomWeather, © 2016

Note: Actual official high and low records may vary slightly from our data, if they occured in-between our weather recording intervals... More about our weather records

Advertising

Stralsund Weather History for the Previous 24 Hours

Scroll right to see more
 ConditionsComfort  
Time TempWeatherWind HumidityBarometerVisibility
10:20 am
Mon, Dec 5
32 °FPassing clouds.7 mph87%30.30 "Hg4 mi
9:20 am30 °FPassing clouds.7 mph86%30.30 "Hg4 mi
8:20 am30 °FScattered clouds.5 mph86%30.33 "Hg4 mi
7:20 am30 °FPassing clouds.7 mph93%30.33 "Hg5 mi
6:20 am30 °FPassing clouds.8 mph93%30.33 "HgN/A
5:20 am32 °FPassing clouds.8 mph93%30.33 "HgN/A
4:20 am34 °FPassing clouds.6 mph87%30.36 "HgN/A
3:20 am34 °FPassing clouds.7 mph93%30.36 "HgN/A
2:20 am36 °FPassing clouds.7 mph87%30.36 "HgN/A
1:20 am36 °FPassing clouds.7 mph87%30.39 "HgN/A
12:20 am36 °FPassing clouds.7 mph87%30.39 "HgN/A
11:20 pm
Sun, Dec 4
36 °FPassing clouds.6 mph87%30.39 "HgN/A
10:20 pm36 °FPassing clouds.6 mph87%30.39 "HgN/A
9:20 pm36 °FPassing clouds.3 mph87%30.39 "HgN/A
8:20 pm36 °FPassing clouds.3 mph87%30.39 "HgN/A
7:20 pm37 °FPassing clouds.5 mph81%30.39 "HgN/A
6:20 pm37 °FPassing clouds.8 mph81%30.39 "HgN/A
5:20 pm37 °FPassing clouds.5 mph87%30.39 "HgN/A
4:20 pm37 °FPassing clouds.6 mph87%30.39 "HgN/A
3:20 pm37 °FPartly sunny.5 mph87%30.39 "HgN/A
2:20 pm37 °FPartly sunny.6 mph87%30.39 "HgN/A
1:20 pm37 °FPartly sunny.2 mph87%30.60 "HgN/A
12:20 pm36 °FPartly sunny.7 mph93%30.39 "HgN/A
11:20 am36 °FPartly sunny.6 mph87%30.39 "HgN/A
Weather by CustomWeather, © 2016

See weather overviewHow to use our weather pages